Time,TemperatureF,DewpointF,PressureIn,WindDirection,WindDirectionDegrees,WindSpeedMPH,WindSpeedGustMPH,Humidity,HourlyPrecipIn,Conditions,Clouds,dailyrainin,SoftwareType,DateUTC
2013-03-06 00:00:00,37.9,31.7,29.99,WNW,282,1.0,2.0,78,0.00,,,0.16,Wunderground v.1.15,2013-03-06 06:00:00,
2013-03-06 00:05:00,37.9,31.7,30.00,WNW,291,1.0,2.0,78,0.00,,,0.00,Wunderground v.1.15,2013-03-06 06:05:00,
2013-03-06 00:10:00,38.0,30.8,30.00,WNW,290,1.0,1.0,75,0.00,,,0.00,Wunderground v.1.15,2013-03-06 06:10:00,
2013-03-06 00:15:00,38.1,30.2,30.00,WNW,290,1.0,1.0,73,0.00,,,0.00,Wunderground v.1.15,2013-03-06 06:15:00,
2013-03-06 00:20:00,38.2,30.6,30.00,WNW,290,0.0,1.0,74,0.00,,,0.00,Wunderground v.1.15,2013-03-06 06:20:00,
2013-03-06 00:25:00,38.1,30.2,30.00,WNW,290,1.0,3.0,73,0.00,,,0.00,Wunderground v.1.15,2013-03-06 06:25:00,
2013-03-06 00:30:00,38.1,30.2,30.00,WNW,290,1.0,2.0,73,0.00,,,0.00,Wunderground v.1.15,2013-03-06 06:30:00,
2013-03-06 00:35:00,38.1,29.9,30.01,WNW,284,1.0,2.0,72,0.00,,,0.00,Wunderground v.1.15,2013-03-06 06:35:00,
2013-03-06 00:40:00,38.1,30.2,30.01,WNW,283,1.0,1.0,73,0.00,,,0.00,Wunderground v.1.15,2013-03-06 06:40:00,
2013-03-06 00:45:00,38.0,30.1,30.01,WNW,283,1.0,1.0,73,0.00,,,0.00,Wunderground v.1.15,2013-03-06 06:45:00,
2013-03-06 00:50:00,37.9,29.3,30.02,WNW,285,1.0,1.0,71,0.00,,,0.00,Wunderground v.1.15,2013-03-06 06:50:00,
2013-03-06 00:55:00,37.9,29.3,30.02,WNW,288,1.0,3.0,71,0.00,,,0.00,Wunderground v.1.15,2013-03-06 06:55:00,
2013-03-06 01:00:00,37.8,28.9,30.02,West,273,1.0,1.0,70,0.00,,,0.00,Wunderground v.1.15,2013-03-06 07:00:00,
2013-03-06 01:05:00,37.7,29.8,30.02,West,273,1.0,3.0,73,0.00,,,0.00,Wunderground v.1.15,2013-03-06 07:05:00,
2013-03-06 01:10:00,37.6,28.3,30.02,WNW,292,1.0,1.0,69,0.00,,,0.00,Wunderground v.1.15,2013-03-06 07:10:00,
2013-03-06 01:15:00,37.6,28.7,30.02,WNW,292,1.0,1.0,70,0.00,,,0.00,Wunderground v.1.15,2013-03-06 07:15:00,
2013-03-06 01:20:00,37.5,28.9,30.02,WNW,292,1.0,1.0,71,0.00,,,0.00,Wunderground v.1.15,2013-03-06 07:20:00,
2013-03-06 01:25:00,37.4,28.5,30.02,WNW,294,1.0,1.0,70,0.00,,,0.00,Wunderground v.1.15,2013-03-06 07:25:00,
2013-03-06 01:30:00,37.3,28.1,30.02,West,279,1.0,3.0,69,0.00,,,0.00,Wunderground v.1.15,2013-03-06 07:30:00,
2013-03-06 01:35:00,37.3,28.1,30.02,West,279,1.0,3.0,69,0.00,,,0.00,Wunderground v.1.15,2013-03-06 07:35:00,
2013-03-06 01:40:00,37.2,28.3,30.02,West,279,1.0,1.0,70,0.00,,,0.00,Wunderground v.1.15,2013-03-06 07:40:00,
2013-03-06 01:45:00,37.1,27.9,30.02,WNW,283,1.0,1.0,69,0.00,,,0.00,Wunderground v.1.15,2013-03-06 07:45:00,
2013-03-06 01:50:00,37.1,27.5,30.02,WNW,284,1.0,1.0,68,0.00,,,0.00,Wunderground v.1.15,2013-03-06 07:50:00,
2013-03-06 01:55:00,37.0,27.1,30.02,West,281,1.0,2.0,67,0.00,,,0.00,Wunderground v.1.15,2013-03-06 07:55:00,
2013-03-06 02:01:00,36.9,26.6,30.02,West,277,2.0,2.0,66,0.00,,,0.00,Wunderground v.1.15,2013-03-06 08:01:00,
2013-03-06 02:05:00,36.9,26.2,30.02,NW,312,1.0,4.0,65,0.00,,,0.00,Wunderground v.1.15,2013-03-06 08:05:00,
2013-03-06 02:15:00,36.8,25.4,30.02,WNW,283,2.0,2.0,63,0.00,,,0.00,Wunderground v.1.15,2013-03-06 08:15:00,
2013-03-06 02:20:00,36.6,24.8,30.02,WNW,294,1.0,3.0,62,0.00,,,0.00,Wunderground v.1.15,2013-03-06 08:20:00,
2013-03-06 02:25:00,36.5,24.7,30.02,WNW,288,1.0,3.0,62,0.00,,,0.00,Wunderground v.1.15,2013-03-06 08:25:00,
2013-03-06 02:35:00,36.2,24.8,30.02,WNW,284,1.0,2.0,63,0.00,,,0.00,Wunderground v.1.15,2013-03-06 08:35:00,
2013-03-06 02:40:00,36.1,25.1,30.02,WNW,296,1.0,1.0,64,0.00,,,0.00,Wunderground v.1.15,2013-03-06 08:40:00,
2013-03-06 02:45:00,35.9,24.1,30.02,West,281,1.0,3.0,62,0.00,,,0.00,Wunderground v.1.15,2013-03-06 08:45:00,
2013-03-06 02:50:00,35.8,24.0,30.03,WNW,290,1.0,1.0,62,0.00,,,0.00,Wunderground v.1.15,2013-03-06 08:50:00,
2013-03-06 03:00:00,35.6,24.2,30.03,WNW,287,2.0,2.0,63,0.00,,,0.00,Wunderground v.1.15,2013-03-06 09:00:00,
2013-03-06 03:05:00,35.5,24.1,30.03,West,281,1.0,2.0,63,0.00,,,0.00,Wunderground v.1.15,2013-03-06 09:05:00,
2013-03-06 03:15:00,35.2,23.5,30.03,West,275,1.0,1.0,62,0.00,,,0.00,Wunderground v.1.15,2013-03-06 09:15:00,
2013-03-06 03:25:00,35.0,23.7,30.04,WNW,282,1.0,2.0,63,0.00,,,0.00,Wunderground v.1.15,2013-03-06 09:25:00,
2013-03-06 03:30:00,35.0,24.4,30.04,South,180,1.0,1.0,65,0.00,,,0.00,Wunderground v.1.15,2013-03-06 09:30:00,
2013-03-06 03:35:00,34.9,23.9,30.04,West,277,1.0,2.0,64,0.00,,,0.00,Wunderground v.1.15,2013-03-06 09:35:00,
2013-03-06 03:40:00,34.8,23.5,30.04,West,281,1.0,4.0,63,0.00,,,0.00,Wunderground v.1.15,2013-03-06 09:40:00,
2013-03-06 03:45:00,34.8,23.9,30.04,South,174,1.0,4.0,64,0.00,,,0.00,Wunderground v.1.15,2013-03-06 09:45:00,
2013-03-06 03:55:00,34.6,23.7,30.05,West,275,1.0,4.0,64,0.00,,,0.00,Wunderground v.1.15,2013-03-06 09:55:00,
2013-03-06 04:00:00,34.5,23.6,30.06,West,275,1.0,1.0,64,0.00,,,0.00,Wunderground v.1.15,2013-03-06 10:00:00,
2013-03-06 04:05:00,34.4,23.1,30.06,WNW,295,1.0,3.0,63,0.00,,,0.00,Wunderground v.1.15,2013-03-06 10:05:00,
2013-03-06 04:10:00,34.4,23.8,30.06,WNW,295,1.0,1.0,65,0.00,,,0.00,Wunderground v.1.15,2013-03-06 10:10:00,
2013-03-06 04:15:00,34.3,23.4,30.06,WNW,295,0.0,1.0,64,0.00,,,0.00,Wunderground v.1.15,2013-03-06 10:15:00,
2013-03-06 04:20:00,34.2,23.7,30.07,WNW,288,0.0,2.0,65,0.00,,,0.00,Wunderground v.1.15,2013-03-06 10:20:00,
2013-03-06 04:25:00,34.0,23.1,30.07,WNW,288,1.0,2.0,64,0.00,,,0.00,Wunderground v.1.15,2013-03-06 10:25:00,
2013-03-06 04:30:00,33.9,23.0,30.07,WNW,288,1.0,2.0,64,0.00,,,0.00,Wunderground v.1.15,2013-03-06 10:30:00,
2013-03-06 04:35:00,33.9,23.4,30.07,WNW,287,1.0,4.0,65,0.00,,,0.00,Wunderground v.1.15,2013-03-06 10:35:00,
2013-03-06 04:40:00,33.8,23.3,30.07,WNW,287,1.0,1.0,65,0.00,,,0.00,Wunderground v.1.15,2013-03-06 10:40:00,
2013-03-06 04:45:00,33.7,23.9,30.07,WNW,287,1.0,1.0,67,0.00,,,0.00,Wunderground v.1.15,2013-03-06 10:45:00,
2013-03-06 04:50:00,33.5,23.7,30.07,WNW,287,0.0,0.0,67,0.00,,,0.00,Wunderground v.1.15,2013-03-06 10:50:00,
2013-03-06 04:55:00,33.4,23.3,30.07,WNW,287,0.0,0.0,66,0.00,,,0.00,Wunderground v.1.15,2013-03-06 10:55:00,
2013-03-06 05:01:00,33.3,23.2,30.08,WNW,287,0.0,0.0,66,0.00,,,0.00,Wunderground v.1.15,2013-03-06 11:01:00,
2013-03-06 05:05:00,33.2,23.8,30.08,WNW,287,0.0,0.0,68,0.00,,,0.00,Wunderground v.1.15,2013-03-06 11:05:00,
2013-03-06 05:10:00,33.0,23.9,30.08,WNW,287,0.0,1.0,69,0.00,,,0.00,Wunderground v.1.15,2013-03-06 11:10:00,
2013-03-06 05:15:00,32.9,23.1,30.08,WNW,287,0.0,1.0,67,0.00,,,0.00,Wunderground v.1.15,2013-03-06 11:15:00,
2013-03-06 05:20:00,32.9,23.1,30.08,WNW,287,1.0,1.0,67,0.00,,,0.00,Wunderground v.1.15,2013-03-06 11:20:00,
2013-03-06 05:25:00,32.9,23.5,30.08,WNW,287,0.0,1.0,68,0.00,,,0.00,Wunderground v.1.15,2013-03-06 11:25:00,
2013-03-06 05:30:00,32.8,23.0,30.08,WNW,287,0.0,2.0,67,0.00,,,0.00,Wunderground v.1.15,2013-03-06 11:30:00,
2013-03-06 05:35:00,32.8,23.0,30.08,WNW,287,1.0,2.0,67,0.00,,,0.00,Wunderground v.1.15,2013-03-06 11:35:00,
2013-03-06 05:40:00,32.7,23.3,30.08,WNW,287,0.0,0.0,68,0.00,,,0.00,Wunderground v.1.15,2013-03-06 11:40:00,
2013-03-06 05:50:00,32.6,23.9,30.09,WNW,287,0.0,0.0,70,0.00,,,0.00,Wunderground v.1.15,2013-03-06 11:50:00,
2013-03-06 05:55:00,32.5,23.5,30.09,WNW,287,0.0,0.0,69,0.00,,,0.00,Wunderground v.1.15,2013-03-06 11:55:00,
2013-03-06 06:00:00,32.4,24.0,30.09,WNW,287,0.0,2.0,71,0.00,,,0.00,Wunderground v.1.15,2013-03-06 12:00:00,
2013-03-06 06:05:00,32.3,23.3,30.09,WNW,287,0.0,2.0,69,0.00,,,0.00,Wunderground v.1.15,2013-03-06 12:05:00,
2013-03-06 06:10:00,32.2,23.2,30.09,WNW,287,0.0,0.0,69,0.00,,,0.00,Wunderground v.1.15,2013-03-06 12:10:00,
2013-03-06 06:15:00,32.1,23.1,30.09,WNW,287,0.0,0.0,69,0.00,,,0.00,Wunderground v.1.15,2013-03-06 12:15:00,
2013-03-06 06:20:00,32.1,23.1,30.10,WNW,287,0.0,0.0,69,0.00,,,0.00,Wunderground v.1.15,2013-03-06 12:20:00,
2013-03-06 06:25:00,32.1,23.4,30.10,WNW,287,0.0,0.0,70,0.00,,,0.00,Wunderground v.1.15,2013-03-06 12:25:00,
2013-03-06 06:30:00,32.1,23.4,30.10,WNW,287,0.0,0.0,70,0.00,,,0.00,Wunderground v.1.15,2013-03-06 12:30:00,
2013-03-06 06:35:00,32.1,23.8,30.11,WNW,287,0.0,0.0,71,0.00,,,0.00,Wunderground v.1.15,2013-03-06 12:35:00,
2013-03-06 06:40:00,32.2,24.2,30.11,WNW,287,0.0,0.0,72,0.00,,,0.00,Wunderground v.1.15,2013-03-06 12:40:00,
2013-03-06 06:45:00,32.5,24.5,30.11,WNW,287,0.0,0.0,72,0.00,,,0.00,Wunderground v.1.15,2013-03-06 12:45:00,
2013-03-06 06:50:00,32.7,24.0,30.11,WNW,287,0.0,2.0,70,0.00,,,0.00,Wunderground v.1.15,2013-03-06 12:50:00,
2013-03-06 06:55:00,32.9,23.8,30.11,WNW,287,0.0,2.0,69,0.00,,,0.00,Wunderground v.1.15,2013-03-06 12:55:00,
2013-03-06 07:01:00,33.1,24.7,30.12,WNW,287,0.0,0.0,71,0.00,,,0.00,Wunderground v.1.15,2013-03-06 13:01:00,
2013-03-06 07:05:00,33.3,24.6,30.12,WNW,287,0.0,1.0,70,0.00,,,0.00,Wunderground v.1.15,2013-03-06 13:05:00,
2013-03-06 07:10:00,33.5,24.8,30.12,WNW,287,0.0,0.0,70,0.00,,,0.00,Wunderground v.1.15,2013-03-06 13:10:00,
2013-03-06 07:15:00,33.7,25.0,30.12,WNW,287,0.0,2.0,70,0.00,,,0.00,Wunderground v.1.15,2013-03-06 13:15:00,
2013-03-06 07:20:00,33.9,24.8,30.13,WNW,287,0.0,0.0,69,0.00,,,0.00,Wunderground v.1.15,2013-03-06 13:20:00,
2013-03-06 07:30:00,34.3,24.8,30.13,WNW,287,0.0,0.0,68,0.00,,,0.00,Wunderground v.1.15,2013-03-06 13:30:00,
2013-03-06 07:35:00,34.6,25.8,30.14,WNW,287,0.0,0.0,70,0.00,,,0.00,Wunderground v.1.15,2013-03-06 13:35:00,
2013-03-06 07:40:00,34.8,25.7,30.14,WNW,287,0.0,0.0,69,0.00,,,0.00,Wunderground v.1.15,2013-03-06 13:40:00,
2013-03-06 07:45:00,35.0,25.5,30.14,WNW,287,0.0,0.0,68,0.00,,,0.00,Wunderground v.1.15,2013-03-06 13:45:00,
2013-03-06 07:50:00,35.2,25.3,30.14,WNW,287,0.0,0.0,67,0.00,,,0.00,Wunderground v.1.15,2013-03-06 13:50:00,
2013-03-06 08:00:00,35.5,25.6,30.15,WNW,287,0.0,0.0,67,0.00,,,0.00,Wunderground v.1.15,2013-03-06 14:00:00,
2013-03-06 08:10:00,35.7,25.8,30.15,WNW,287,0.0,0.0,67,0.00,,,0.00,Wunderground v.1.15,2013-03-06 14:10:00,
2013-03-06 08:15:00,35.9,25.6,30.15,WNW,287,0.0,0.0,66,0.00,,,0.00,Wunderground v.1.15,2013-03-06 14:15:00,
2013-03-06 08:20:00,36.1,26.9,30.16,WNW,286,0.0,2.0,69,0.00,,,0.00,Wunderground v.1.15,2013-03-06 14:20:00,
2013-03-06 08:25:00,36.3,26.4,30.16,WNW,287,0.0,2.0,67,0.00,,,0.00,Wunderground v.1.15,2013-03-06 14:25:00,
2013-03-06 08:30:00,36.5,26.2,30.16,WNW,287,0.0,1.0,66,0.00,,,0.00,Wunderground v.1.15,2013-03-06 14:30:00,
2013-03-06 08:40:00,36.7,26.4,30.16,WNW,286,1.0,1.0,66,0.00,,,0.00,Wunderground v.1.15,2013-03-06 14:40:00,
2013-03-06 08:45:00,36.9,26.2,30.16,WNW,282,1.0,1.0,65,0.00,,,0.00,Wunderground v.1.15,2013-03-06 14:45:00,
2013-03-06 08:50:00,36.9,26.2,30.16,WNW,282,1.0,1.0,65,0.00,,,0.00,Wunderground v.1.15,2013-03-06 14:50:00,
2013-03-06 08:55:00,37.1,26.8,30.16,WNW,282,1.0,1.0,66,0.00,,,0.00,Wunderground v.1.15,2013-03-06 14:55:00,
2013-03-06 09:00:00,37.3,26.2,30.17,West,279,1.0,1.0,64,0.00,,,0.00,Wunderground v.1.15,2013-03-06 15:00:00,
2013-03-06 09:05:00,37.4,26.3,30.17,West,279,1.0,3.0,64,0.00,,,0.00,Wunderground v.1.15,2013-03-06 15:05:00,
2013-03-06 09:10:00,37.5,26.4,30.17,SSE,159,1.0,1.0,64,0.00,,,0.00,Wunderground v.1.15,2013-03-06 15:10:00,
2013-03-06 09:15:00,37.6,25.7,30.17,North,360,1.0,1.0,62,0.00,,,0.00,Wunderground v.1.15,2013-03-06 15:15:00,
2013-03-06 09:20:00,37.6,25.7,30.17,WNW,286,1.0,6.0,62,0.00,,,0.00,Wunderground v.1.15,2013-03-06 15:20:00,
2013-03-06 09:25:00,37.7,25.8,30.17,WNW,283,2.0,6.0,62,0.00,,,0.00,Wunderground v.1.15,2013-03-06 15:25:00,
2013-03-06 09:30:00,37.7,25.8,30.17,WNW,296,2.0,2.0,62,0.00,,,0.00,Wunderground v.1.15,2013-03-06 15:30:00,
2013-03-06 09:35:00,37.8,25.9,30.18,WNW,285,1.0,4.0,62,0.00,,,0.00,Wunderground v.1.15,2013-03-06 15:35:00,
2013-03-06 09:45:00,38.3,26.4,30.18,WNW,286,2.0,4.0,62,0.00,,,0.00,Wunderground v.1.15,2013-03-06 15:45:00,
2013-03-06 09:50:00,38.5,25.8,30.18,SW,221,2.0,2.0,60,0.00,,,0.00,Wunderground v.1.15,2013-03-06 15:50:00,
2013-03-06 09:55:00,38.7,26.0,30.18,WNW,300,2.0,3.0,60,0.00,,,0.00,Wunderground v.1.15,2013-03-06 15:55:00,
2013-03-06 10:00:00,38.9,26.2,30.19,WNW,296,1.0,1.0,60,0.00,,,0.00,Wunderground v.1.15,2013-03-06 16:00:00,
2013-03-06 10:10:00,39.5,26.8,30.19,WNW,294,1.0,4.0,60,0.00,,,0.00,Wunderground v.1.15,2013-03-06 16:10:00,
2013-03-06 10:15:00,39.8,26.2,30.19,West,275,1.0,4.0,58,0.00,,,0.00,Wunderground v.1.15,2013-03-06 16:15:00,
2013-03-06 10:20:00,40.1,27.3,30.19,SSW,213,1.0,1.0,60,0.00,,,0.00,Wunderground v.1.15,2013-03-06 16:20:00,
2013-03-06 10:25:00,40.3,27.1,30.19,West,267,1.0,1.0,59,0.00,,,0.00,Wunderground v.1.15,2013-03-06 16:25:00,
2013-03-06 10:30:00,40.6,27.0,30.19,West,269,1.0,2.0,58,0.00,,,0.00,Wunderground v.1.15,2013-03-06 16:30:00,
2013-03-06 10:35:00,40.8,26.7,30.19,West,280,1.0,2.0,57,0.00,,,0.00,Wunderground v.1.15,2013-03-06 16:35:00,
2013-03-06 10:40:00,41.0,27.3,30.19,West,262,1.0,5.0,58,0.00,,,0.00,Wunderground v.1.15,2013-03-06 16:40:00,
2013-03-06 10:45:00,41.2,27.1,30.19,WNW,284,1.0,5.0,57,0.00,,,0.00,Wunderground v.1.15,2013-03-06 16:45:00,
2013-03-06 10:50:00,41.5,27.4,30.19,WNW,291,2.0,2.0,57,0.00,,,0.00,Wunderground v.1.15,2013-03-06 16:50:00,
2013-03-06 10:55:00,42.0,28.3,30.19,WNW,286,2.0,2.0,58,0.00,,,0.00,Wunderground v.1.15,2013-03-06 16:55:00,
2013-03-06 11:00:00,42.4,28.7,30.19,WNW,292,1.0,3.0,58,0.00,,,0.00,Wunderground v.1.15,2013-03-06 17:00:00,
2013-03-06 11:05:00,42.9,27.8,30.19,West,275,1.0,3.0,55,0.00,,,0.00,Wunderground v.1.15,2013-03-06 17:05:00,
2013-03-06 11:10:00,43.3,27.8,30.19,WNW,284,2.0,4.0,54,0.00,,,0.00,Wunderground v.1.15,2013-03-06 17:10:00,
2013-03-06 11:15:00,43.2,27.7,30.19,NW,320,2.0,4.0,54,0.00,,,0.00,Wunderground v.1.15,2013-03-06 17:15:00,
2013-03-06 11:20:00,43.1,28.9,30.19,WNW,302,1.0,1.0,57,0.00,,,0.00,Wunderground v.1.15,2013-03-06 17:20:00,
2013-03-06 11:25:00,43.1,28.0,30.19,West,263,1.0,1.0,55,0.00,,,0.00,Wunderground v.1.15,2013-03-06 17:25:00,
2013-03-06 11:35:00,43.4,28.7,30.19,WNW,291,1.0,6.0,56,0.00,,,0.00,Wunderground v.1.15,2013-03-06 17:35:00,
2013-03-06 11:40:00,43.4,28.3,30.19,West,281,2.0,3.0,55,0.00,,,0.00,Wunderground v.1.15,2013-03-06 17:40:00,
2013-03-06 11:45:00,43.3,28.2,30.19,West,279,3.0,3.0,55,0.00,,,0.00,Wunderground v.1.15,2013-03-06 17:45:00,
2013-03-06 11:55:00,43.0,27.9,30.20,WNW,294,1.0,2.0,55,0.00,,,0.00,Wunderground v.1.15,2013-03-06 17:55:00,
2013-03-06 12:00:00,42.9,27.8,30.19,WNW,294,1.0,3.0,55,0.00,,,0.00,Wunderground v.1.15,2013-03-06 18:00:00,
2013-03-06 12:05:00,42.8,27.7,30.19,WNW,294,1.0,3.0,55,0.00,,,0.00,Wunderground v.1.15,2013-03-06 18:05:00,
2013-03-06 12:15:00,42.6,28.0,30.19,West,270,1.0,1.0,56,0.00,,,0.00,Wunderground v.1.15,2013-03-06 18:15:00,
2013-03-06 12:20:00,42.8,28.2,30.19,SE,139,1.0,1.0,56,0.00,,,0.00,Wunderground v.1.15,2013-03-06 18:20:00,
2013-03-06 12:25:00,43.1,28.9,30.19,WNW,283,1.0,1.0,57,0.00,,,0.00,Wunderground v.1.15,2013-03-06 18:25:00,
2013-03-06 12:30:00,43.4,28.7,30.19,WNW,288,1.0,1.0,56,0.00,,,0.00,Wunderground v.1.15,2013-03-06 18:30:00,
2013-03-06 12:35:00,43.4,28.7,30.19,West,275,1.0,2.0,56,0.00,,,0.00,Wunderground v.1.15,2013-03-06 18:35:00,
2013-03-06 12:40:00,43.6,28.0,30.19,WNW,283,2.0,2.0,54,0.00,,,0.00,Wunderground v.1.15,2013-03-06 18:40:00,
2013-03-06 12:45:00,43.8,29.1,30.19,West,273,2.0,5.0,56,0.00,,,0.00,Wunderground v.1.15,2013-03-06 18:45:00,
2013-03-06 12:50:00,44.1,28.5,30.18,West,275,1.0,1.0,54,0.00,,,0.00,Wunderground v.1.15,2013-03-06 18:50:00,
2013-03-06 12:55:00,44.0,27.5,30.18,SW,231,1.0,1.0,52,0.00,,,0.00,Wunderground v.1.15,2013-03-06 18:55:00,
2013-03-06 13:01:00,44.0,28.0,30.18,West,275,1.0,3.0,53,0.00,,,0.00,Wunderground v.1.15,2013-03-06 19:01:00,
2013-03-06 13:05:00,44.2,28.1,30.18,West,268,1.0,3.0,53,0.00,,,0.00,Wunderground v.1.15,2013-03-06 19:05:00,
2013-03-06 13:10:00,43.8,28.2,30.18,WSW,256,1.0,1.0,54,0.00,,,0.00,Wunderground v.1.15,2013-03-06 19:10:00,
2013-03-06 13:15:00,43.5,27.9,30.17,NNW,336,1.0,1.0,54,0.00,,,0.00,Wunderground v.1.15,2013-03-06 19:15:00,
2013-03-06 13:20:00,43.4,27.8,30.17,NNW,336,0.0,2.0,54,0.00,,,0.00,Wunderground v.1.15,2013-03-06 19:20:00,
2013-03-06 13:30:00,43.9,28.3,30.17,West,280,2.0,2.0,54,0.00,,,0.00,Wunderground v.1.15,2013-03-06 19:30:00,
2013-03-06 13:35:00,44.4,28.8,30.17,West,281,1.0,2.0,54,0.00,,,0.00,Wunderground v.1.15,2013-03-06 19:35:00,
2013-03-06 13:40:00,44.8,28.7,30.17,South,177,1.0,1.0,53,0.00,,,0.00,Wunderground v.1.15,2013-03-06 19:40:00,
2013-03-06 13:45:00,45.1,29.0,30.17,WNW,288,1.0,1.0,53,0.00,,,0.00,Wunderground v.1.15,2013-03-06 19:45:00,
2013-03-06 13:50:00,45.2,29.1,30.17,WNW,299,1.0,1.0,53,0.00,,,0.00,Wunderground v.1.15,2013-03-06 19:50:00,
2013-03-06 13:55:00,45.1,29.0,30.17,NW,311,2.0,2.0,53,0.00,,,0.00,Wunderground v.1.15,2013-03-06 19:55:00,
2013-03-06 14:00:00,44.9,29.2,30.17,SSW,198,1.0,1.0,54,0.00,,,0.00,Wunderground v.1.15,2013-03-06 20:00:00,
2013-03-06 14:10:00,44.9,28.8,30.17,NW,325,1.0,2.0,53,0.00,,,0.00,Wunderground v.1.15,2013-03-06 20:10:00,
2013-03-06 14:15:00,44.7,29.5,30.17,WNW,288,1.0,2.0,55,0.00,,,0.00,Wunderground v.1.15,2013-03-06 20:15:00,
2013-03-06 14:20:00,44.8,28.2,30.17,West,271,1.0,4.0,52,0.00,,,0.00,Wunderground v.1.15,2013-03-06 20:20:00,
2013-03-06 14:25:00,44.8,28.7,30.17,West,269,2.0,4.0,53,0.00,,,0.00,Wunderground v.1.15,2013-03-06 20:25:00,
2013-03-06 14:30:00,44.8,29.2,30.17,West,275,2.0,2.0,54,0.00,,,0.00,Wunderground v.1.15,2013-03-06 20:30:00,
2013-03-06 14:35:00,44.8,28.2,30.17,West,281,2.0,2.0,52,0.00,,,0.00,Wunderground v.1.15,2013-03-06 20:35:00,
2013-03-06 14:40:00,44.7,28.6,30.17,WNW,282,1.0,1.0,53,0.00,,,0.00,Wunderground v.1.15,2013-03-06 20:40:00,
2013-03-06 14:45:00,44.6,28.5,30.17,West,274,2.0,2.0,53,0.00,,,0.00,Wunderground v.1.15,2013-03-06 20:45:00,
2013-03-06 14:50:00,44.6,29.0,30.17,West,259,1.0,1.0,54,0.00,,,0.00,Wunderground v.1.15,2013-03-06 20:50:00,
2013-03-06 14:55:00,44.6,29.0,30.17,WNW,297,1.0,2.0,54,0.00,,,0.00,Wunderground v.1.15,2013-03-06 20:55:00,
2013-03-06 15:00:00,44.7,29.1,30.17,West,281,2.0,2.0,54,0.00,,,0.00,Wunderground v.1.15,2013-03-06 21:00:00,
2013-03-06 15:05:00,44.6,29.0,30.17,WNW,286,2.0,6.0,54,0.00,,,0.00,Wunderground v.1.15,2013-03-06 21:05:00,
2013-03-06 15:10:00,44.4,28.8,30.17,WNW,300,2.0,2.0,54,0.00,,,0.00,Wunderground v.1.15,2013-03-06 21:10:00,
2013-03-06 15:15:00,44.5,29.3,30.17,WNW,294,1.0,2.0,55,0.00,,,0.00,Wunderground v.1.15,2013-03-06 21:15:00,
2013-03-06 15:20:00,44.5,28.9,30.17,West,278,1.0,3.0,54,0.00,,,0.00,Wunderground v.1.15,2013-03-06 21:20:00,
2013-03-06 15:30:00,44.6,29.4,30.17,South,175,1.0,1.0,55,0.00,,,0.00,Wunderground v.1.15,2013-03-06 21:30:00,
2013-03-06 15:35:00,44.6,29.4,30.17,West,275,1.0,1.0,55,0.00,,,0.00,Wunderground v.1.15,2013-03-06 21:35:00,
2013-03-06 15:45:00,44.3,29.1,30.18,SSW,196,1.0,1.0,55,0.00,,,0.00,Wunderground v.1.15,2013-03-06 21:45:00,
2013-03-06 15:55:00,44.4,29.2,30.18,West,277,1.0,1.0,55,0.00,,,0.00,Wunderground v.1.15,2013-03-06 21:55:00,
2013-03-06 16:01:00,44.3,29.1,30.18,WNW,282,1.0,1.0,55,0.00,,,0.00,Wunderground v.1.15,2013-03-06 22:01:00,
2013-03-06 16:05:00,44.1,28.9,30.18,West,281,1.0,1.0,55,0.00,,,0.00,Wunderground v.1.15,2013-03-06 22:05:00,
2013-03-06 16:10:00,44.0,28.9,30.18,WNW,288,1.0,3.0,55,0.00,,,0.00,Wunderground v.1.15,2013-03-06 22:10:00,
2013-03-06 16:15:00,44.0,28.9,30.18,WNW,294,1.0,3.0,55,0.00,,,0.00,Wunderground v.1.15,2013-03-06 22:15:00,
2013-03-06 16:20:00,43.9,29.2,30.18,South,185,0.0,0.0,56,0.00,,,0.00,Wunderground v.1.15,2013-03-06 22:20:00,
2013-03-06 16:25:00,43.8,29.1,30.18,NW,304,1.0,2.0,56,0.00,,,0.00,Wunderground v.1.15,2013-03-06 22:25:00,
2013-03-06 16:35:00,43.4,29.2,30.18,WNW,286,1.0,1.0,57,0.00,,,0.00,Wunderground v.1.15,2013-03-06 22:35:00,
2013-03-06 16:40:00,43.3,29.5,30.18,WNW,286,1.0,1.0,58,0.00,,,0.00,Wunderground v.1.15,2013-03-06 22:40:00,
2013-03-06 16:45:00,43.2,29.0,30.18,West,268,0.0,1.0,57,0.00,,,0.00,Wunderground v.1.15,2013-03-06 22:45:00,
2013-03-06 16:50:00,43.1,28.9,30.18,WNW,296,1.0,1.0,57,0.00,,,0.00,Wunderground v.1.15,2013-03-06 22:50:00,
2013-03-06 17:00:00,42.8,29.0,30.18,WNW,296,0.0,0.0,58,0.00,,,0.00,Wunderground v.1.15,2013-03-06 23:00:00,
2013-03-06 17:05:00,42.7,29.4,30.18,WNW,296,0.0,0.0,59,0.00,,,0.00,Wunderground v.1.15,2013-03-06 23:05:00,
2013-03-06 17:10:00,42.5,29.6,30.18,WNW,296,0.0,0.0,60,0.00,,,0.00,Wunderground v.1.15,2013-03-06 23:10:00,
2013-03-06 17:15:00,42.3,29.0,30.18,WNW,296,0.0,0.0,59,0.00,,,0.00,Wunderground v.1.15,2013-03-06 23:15:00,
2013-03-06 17:20:00,42.2,28.9,30.19,WNW,296,0.0,0.0,59,0.00,,,0.00,Wunderground v.1.15,2013-03-06 23:20:00,
2013-03-06 17:25:00,42.0,28.7,30.19,WNW,296,1.0,1.0,59,0.00,,,0.00,Wunderground v.1.15,2013-03-06 23:25:00,
2013-03-06 17:30:00,41.9,29.0,30.19,WNW,288,1.0,1.0,60,0.00,,,0.00,Wunderground v.1.15,2013-03-06 23:30:00,
2013-03-06 17:35:00,41.7,28.8,30.19,WNW,288,0.0,1.0,60,0.00,,,0.00,Wunderground v.1.15,2013-03-06 23:35:00,
2013-03-06 17:40:00,41.5,28.6,30.19,WNW,288,0.0,1.0,60,0.00,,,0.00,Wunderground v.1.15,2013-03-06 23:40:00,
2013-03-06 17:45:00,41.3,29.3,30.19,WNW,288,0.0,1.0,62,0.00,,,0.00,Wunderground v.1.15,2013-03-06 23:45:00,
2013-03-06 17:50:00,41.2,28.8,30.18,WNW,288,0.0,0.0,61,0.00,,,0.00,Wunderground v.1.15,2013-03-06 23:50:00,
2013-03-06 17:55:00,41.0,28.6,30.18,WNW,288,0.0,0.0,61,0.00,,,0.00,Wunderground v.1.15,2013-03-06 23:55:00,
2013-03-06 18:01:00,40.8,28.8,30.18,West,281,0.0,0.0,62,0.00,,,0.00,Wunderground v.1.15,2013-03-07 00:01:00,
2013-03-06 18:10:00,40.5,28.9,30.18,West,281,0.0,1.0,63,0.00,,,0.00,Wunderground v.1.15,2013-03-07 00:10:00,
2013-03-06 18:15:00,40.3,28.7,30.18,West,281,0.0,1.0,63,0.00,,,0.00,Wunderground v.1.15,2013-03-07 00:15:00,
2013-03-06 18:20:00,40.2,29.0,30.18,West,281,0.0,0.0,64,0.00,,,0.00,Wunderground v.1.15,2013-03-07 00:20:00,
2013-03-06 18:25:00,40.0,29.2,30.18,West,281,0.0,0.0,65,0.00,,,0.00,Wunderground v.1.15,2013-03-07 00:25:00,
2013-03-06 18:30:00,39.8,29.0,30.18,West,281,0.0,0.0,65,0.00,,,0.00,Wunderground v.1.15,2013-03-07 00:30:00,
2013-03-06 18:35:00,39.6,28.8,30.18,West,281,0.0,0.0,65,0.00,,,0.00,Wunderground v.1.15,2013-03-07 00:35:00,
2013-03-06 18:40:00,39.5,29.1,30.18,West,281,0.0,0.0,66,0.00,,,0.00,Wunderground v.1.15,2013-03-07 00:40:00,
2013-03-06 18:45:00,39.3,28.9,30.18,West,281,0.0,0.0,66,0.00,,,0.00,Wunderground v.1.15,2013-03-07 00:45:00,
2013-03-06 18:50:00,39.2,29.2,30.18,West,281,0.0,0.0,67,0.00,,,0.00,Wunderground v.1.15,2013-03-07 00:50:00,
2013-03-06 18:55:00,39.0,29.0,30.18,West,281,0.0,0.0,67,0.00,,,0.00,Wunderground v.1.15,2013-03-07 00:55:00,
2013-03-06 19:00:00,38.9,29.2,30.18,West,281,0.0,0.0,68,0.00,,,0.00,Wunderground v.1.15,2013-03-07 01:00:00,
2013-03-06 19:05:00,38.7,29.4,30.18,West,281,0.0,0.0,69,0.00,,,0.00,Wunderground v.1.15,2013-03-07 01:05:00,
2013-03-06 22:30:00,33.4,28.8,30.21,West,281,0.0,0.0,83,0.00,,,0.00,Wunderground v.1.15,2013-03-07 04:30:00,
2013-03-06 22:40:00,33.3,28.4,30.21,West,281,0.0,0.0,82,0.00,,,0.00,Wunderground v.1.15,2013-03-07 04:40:00,
2013-03-06 22:45:00,33.2,28.6,30.21,West,281,0.0,0.0,83,0.00,,,0.00,Wunderground v.1.15,2013-03-07 04:45:00,
2013-03-06 22:50:00,33.1,28.5,30.21,West,281,0.0,0.0,83,0.00,,,0.00,Wunderground v.1.15,2013-03-07 04:50:00,
2013-03-06 22:55:00,33.0,28.7,30.21,West,281,0.0,0.0,84,0.00,,,0.00,Wunderground v.1.15,2013-03-07 04:55:00,
2013-03-06 23:00:00,33.0,28.4,30.21,West,281,0.0,0.0,83,0.00,,,0.00,Wunderground v.1.15,2013-03-07 05:00:00,
2013-03-06 23:05:00,33.0,28.7,30.21,West,281,0.0,0.0,84,0.00,,,0.00,Wunderground v.1.15,2013-03-07 05:05:00,
2013-03-06 23:10:00,33.0,28.4,30.21,West,281,0.0,0.0,83,0.00,,,0.00,Wunderground v.1.15,2013-03-07 05:10:00,
2013-03-06 23:15:00,33.0,28.4,30.21,West,281,0.0,0.0,83,0.00,,,0.00,Wunderground v.1.15,2013-03-07 05:15:00,
2013-03-06 23:25:00,33.4,28.5,30.21,West,281,0.0,0.0,82,0.00,,,0.00,Wunderground v.1.15,2013-03-07 05:25:00,
2013-03-06 23:30:00,33.4,28.5,30.21,West,281,0.0,0.0,82,0.00,,,0.00,Wunderground v.1.15,2013-03-07 05:30:00,
2013-03-06 23:35:00,33.4,28.5,30.21,West,281,0.0,0.0,82,0.00,,,0.00,Wunderground v.1.15,2013-03-07 05:35:00,
2013-03-06 23:45:00,33.3,28.7,30.21,West,281,0.0,0.0,83,0.00,,,0.00,Wunderground v.1.15,2013-03-07 05:45:00,
2013-03-06 23:50:00,33.2,28.6,30.21,West,281,0.0,0.0,83,0.00,,,0.00,Wunderground v.1.15,2013-03-07 05:50:00,